FW7875 Weather Reports


Display with metric or nautical units.
time (UTC)temp
F
wind
direction
speed
MPH
gust
MPH
rain 1hr
in
rain 24hr
in
rain mn
in
humidity
%
barometer
mb
20260505004013 59 248 10.0 15.0 0.00 0.04 0.04 28 1011.3
20260505003515 59 234 10.0 13.0 0.00 0.04 0.04 28 1011.2
20260505003041 59 240 8.0 19.0 0.00 0.04 0.04 28 1011.2
20260505002513 59 212 11.0 19.0 0.00 0.04 0.04 27 1011.3
20260505002012 59 212 11.0 23.0 0.00 0.04 0.04 26 1011.3
20260505001534 60 203 11.0 23.0 0.00 0.04 0.04 28 1011.2
20260505001013 60 246 12.0 17.0 0.00 0.04 0.04 27 1011.3
20260505000513 60 234 11.0 17.0 0.00 0.04 0.04 29 1011.3
20260505000042 60 237 10.0 15.0 0.00 0.04 0.04 27 1011.4
20260504235514 60 220 7.0 15.0 0.00 0.04 0.04 29 1011.4
20260504235014 60 207 10.0 16.0 0.00 0.04 0.04 30 1011.3
20260504234533 60 264 11.0 16.0 0.00 0.04 0.04 30 1011.3
20260504234014 60 232 13.0 17.0 0.00 0.04 0.04 30 1011.4
20260504233513 60 219 11.0 17.0 0.00 0.04 0.04 31 1011.3
20260504233032 60 243 11.0 20.0 0.00 0.04 0.04 31 1011.4
20260504232515 61 214 12.0 20.0 0.00 0.04 0.04 29 1011.5
20260504232017 61 207 11.0 20.0 0.00 0.04 0.04 27 1011.3
20260504231532 61 215 13.0 20.0 0.00 0.04 0.04 27 1011.3
20260504231015 62 221 11.0 21.0 0.00 0.04 0.04 28 1011.5
20260504230513 62 222 14.0 21.0 0.00 0.04 0.04 27 1011.5
20260504230041 61 245 13.0 19.0 0.00 0.04 0.04 28 1011.4
20260504225514 61 251 13.0 19.0 0.00 0.04 0.04 28 1011.4
20260504225015 61 233 14.0 19.0 0.00 0.04 0.04 27 1011.4
20260504224533 61 237 15.0 19.0 0.00 0.04 0.04 27 1011.3
20260504224013 61 257 11.0 19.0 0.00 0.04 0.04 28 1011.3
20260504223514 61 166 13.0 19.0 0.00 0.04 0.04 28 1011.5
20260504223032 61 224 11.0 22.0 0.00 0.04 0.04 28 1011.3
20260504222512 61 227 14.0 22.0 0.00 0.04 0.04 29 1011.4
20260504222018 61 226 13.0 22.0 0.00 0.04 0.04 27 1011.3
20260504221545 61 184 9.0 23.0 0.00 0.04 0.04 28 1011.3
20260504221017 62 191 12.0 23.0 0.00 0.04 0.04 31 1011.5
20260504220515 61 248 17.0 23.0 0.00 0.04 0.04 32 1011.6
20260504220035 62 206 13.0 21.0 0.00 0.04 0.04 32 1011.6
20260504215514 62 222 13.0 19.0 0.00 0.04 0.04 31 1011.6
20260504215014 61 194 12.0 21.0 0.00 0.04 0.04 34 1011.7
20260504214531 61 239 12.0 21.0 0.00 0.04 0.04 30 1011.8
20260504214013 62 231 12.0 21.0 0.00 0.04 0.04 33 1011.9
20260504213513 61 230 12.0 18.0 0.00 0.04 0.04 35 1011.9
20260504213042 61 227 14.0 18.0 0.00 0.04 0.04 35 1012.0
20260504212516 61 208 8.0 20.0 0.00 0.04 0.04 36 1012.1
20260504212014 61 226 13.0 20.0 0.00 0.04 0.04 36 1012.4
20260504211536 61 236 11.0 18.0 0.00 0.04 0.04 37 1012.3
20260504211014 61 245 12.0 19.0 0.00 0.04 0.04 39 1012.2
20260504210515 59 240 9.0 19.0 0.00 0.04 0.04 42 1012.4
20260504210038 58 257 6.0 12.0 0.00 0.04 0.04 46 1012.6
20260504205514 58 301 4.0 12.0 0.00 0.04 0.04 47 1012.5
20260504205013 58 226 4.0 12.0 0.00 0.04 0.04 49 1012.8
20260504204534 57 285 5.0 9.0 0.00 0.04 0.04 52 1012.9
20260504204015 56 314 5.0 9.0 0.00 0.04 0.04 51 1013.0
20260504203517 55 281 5.0 9.0 0.00 0.04 0.04 54 1013.1
20260504203043 55 294 4.0 10.0 0.00 0.04 0.04 56 1013.0
20260504202513 54 307 7.0 11.0 0.00 0.04 0.04 56 1013.1
20260504202014 54 295 7.0 13.0 0.00 0.04 0.04 57 1013.4
20260504201532 54 312 8.0 14.0 0.00 0.04 0.04 56 1013.2
20260504201013 54 307 9.0 15.0 0.00 0.04 0.04 56 1013.5
20260504200518 54 314 9.0 19.0 0.00 0.04 0.04 56 1013.5
20260504200032 54 303 11.0 20.0 0.00 0.04 0.04 56 1013.7
20260504195512 55 290 14.0 21.0 0.00 0.04 0.04 54 1013.6
20260504195014 56 276 17.0 23.0 0.00 0.04 0.04 52 1013.6
20260504194539 58 281 12.0 23.0 0.00 0.04 0.04 50 1013.5
20260504194014 61 246 15.0 22.0 0.00 0.04 0.04 38 1013.3
20260504193513 61 191 13.0 21.0 0.00 0.04 0.04 38 1013.1
20260504193032 61 209 13.0 22.0 0.00 0.04 0.04 40 1013.2
20260504192513 61 232 12.0 24.0 0.00 0.04 0.04 37 1013.2
20260504192016 61 191 16.0 24.0 0.00 0.04 0.04 36 1013.1
20260504191538 61 235 11.0 23.0 0.00 0.04 0.04 41 1012.9
20260504191013 61 251 14.0 23.0 0.00 0.04 0.04 42 1013.2
20260504190514 61 214 13.0 21.0 0.00 0.04 0.04 40 1013.1
20260504190030 61 222 14.0 21.0 0.00 0.04 0.04 45 1013.2
20260504185512 61 241 11.0 21.0 0.00 0.04 0.04 41 1013.1
20260504185014 61 232 13.0 21.0 0.00 0.04 0.04 42 1013.2
20260504184531 60 235 11.0 19.0 0.00 0.04 0.04 44 1013.2
20260504184013 60 211 11.0 25.0 0.00 0.04 0.04 43 1013.2
20260504183516 61 218 14.0 25.0 0.00 0.04 0.04 41 1013.3
20260504183031 61 238 9.0 17.0 0.00 0.04 0.04 45 1013.3
20260504182516 61 233 9.0 17.0 0.00 0.04 0.04 46 1013.4
20260504182017 61 235 8.0 17.0 0.00 0.04 0.04 48 1013.4
20260504181537 59 234 4.0 15.0 0.00 0.04 0.04 53 1013.6
20260504181013 59 153 7.0 13.0 0.00 0.04 0.04 51 1013.6
20260504180514 59 290 8.0 13.0 0.00 0.04 0.04 55 1013.7
20260504180035 59 258 6.0 13.0 0.00 0.04 0.04 58 1013.9
20260504175539 58 282 7.0 12.0 0.00 0.04 0.04 58 1013.9
20260504175013 57 259 6.0 13.0 0.00 0.04 0.04 59 1013.9
20260504174532 57 277 9.0 13.0 0.00 0.04 0.04 62 1013.9
20260504174013 57 291 6.0 13.0 0.00 0.04 0.04 64 1014.1
20260504173514 56 293 8.0 16.0 0.00 0.04 0.04 65 1014.1
20260504173034 56 289 8.0 18.0 0.00 0.04 0.04 64 1014.2
20260504172512 56 285 11.0 18.0 0.00 0.04 0.04 62 1014.3
20260504172016 56 285 11.0 16.0 0.00 0.04 0.04 64 1014.2
20260504171535 56 300 8.0 16.0 0.00 0.04 0.04 65 1014.3
20260504171015 55 285 11.0 16.0 0.00 0.04 0.04 62 1014.1
20260504170514 55 288 12.0 16.0 0.00 0.04 0.04 64 1014.2
20260504151014 53 326 0.0 3.0 0.00 0.04 0.04 66 1015.1
20260504150515 53 283 2.0 4.0 0.00 0.04 0.04 64 1015.2
20260504141018 46 107 3.0 4.0 0.00 0.04 0.04 86 1015.5
20260504140513 46 114 3.0 4.0 0.00 0.04 0.04 86 1015.3
20260504130512 42 84 5.0 8.0 0.00 0.04 0.04 87 1015.1
20260504110516 43 97 9.0 11.0 0.00 0.04 0.04 90 1015.4
20260504100511 44 63 3.0 10.0 0.03 0.04 0.04 90 1015.9
20260504081534 46 113 0.0 3.0 0.00 0.00 0.00 77 1016.1
20260504081020 46 107 1.0 9.0 0.00 0.00 0.00 78 1016.1
20260504080513 46 121 1.0 9.0 0.00 0.00 0.00 79 1016.1
20260504050517 55 197 12.0 21.0 0.00 0.00 0.00 47 1017.0
20260504045510 56 194 12.0 18.0 0.00 0.00 0.00 45 1016.8
20260504045016 56 184 11.0 16.0 0.00 0.00 0.00 43 1016.7
20260504044529 56 224 11.0 16.0 0.00 0.00 0.00 42 1016.7
20260504044011 56 189 9.0 18.0 0.00 0.00 0.00 41 1016.7
20260504043510 56 174 10.0 18.0 0.00 0.00 0.00 41 1016.5
20260504043035 57 216 11.0 25.0 0.00 0.00 0.00 40 1016.6
20260504042512 57 210 18.0 25.0 0.00 0.00 0.00 39 1016.4
20260504042013 57 245 14.0 21.0 0.00 0.00 0.00 38 1016.1
20260504041531 56 218 12.0 19.0 0.00 0.00 0.00 38 1015.8
20260504041012 53 207 9.0 13.0 0.00 0.00 0.00 41 1015.6
20260504040511 50 0 0.0 6.0 0.00 0.00 0.00 42 1015.6
20260504040056 49 206 4.0 6.0 0.00 0.00 0.00 44 1015.4
20260504035512 49 105 3.0 5.0 0.00 0.00 0.00 44 1014.8
20260504035016 49 97 3.0 6.0 0.00 0.00 0.00 45 1014.6
20260504034530 48 98 4.0 6.0 0.00 0.00 0.00 45 1014.5
20260504034011 48 86 3.0 5.0 0.00 0.00 0.00 45 1014.6
20260504033511 48 85 3.0 5.0 0.00 0.00 0.00 45 1014.5
20260504033035 49 96 3.0 5.0 0.00 0.00 0.00 45 1014.6
20260504032512 49 92 4.0 5.0 0.00 0.00 0.00 44 1014.6
20260504032013 49 90 4.0 5.0 0.00 0.00 0.00 45 1014.6
20260504031530 49 105 3.0 5.0 0.00 0.00 0.00 44 1014.6
20260504031012 49 94 2.0 4.0 0.00 0.00 0.00 45 1014.6
20260504030514 50 85 3.0 4.0 0.00 0.00 0.00 44 1014.6
20260504030032 51 93 3.0 4.0 0.00 0.00 0.00 42 1014.6
20260504025516 53 94 1.0 2.0 0.00 0.00 0.00 39 1014.5
20260504025010 54 91 0.0 2.0 0.00 0.00 0.00 36 1014.5
20260504024531 56 111 1.0 2.0 0.00 0.00 0.00 33 1014.4
20260504024013 56 0 0.0 2.0 0.00 0.00 0.00 33 1014.4
20260504023515 56 83 1.0 2.0 0.00 0.00 0.00 33 1014.4
20260504023034 56 0 0.0 1.0 0.00 0.00 0.00 33 1014.4
20260504022515 58 0 0.0 0.0 0.00 0.00 0.00 31 1014.2
20260504022012 58 308 0.0 1.0 0.00 0.00 0.00 30 1014.2
20260504021532 58 308 0.0 1.0 0.00 0.00 0.00 30 1014.3
20260504021016 59 0 0.0 1.0 0.00 0.00 0.00 30 1014.2
20260504020515 59 278 0.0 1.0 0.00 0.00 0.00 29 1014.4
20260504020031 59 278 0.0 1.0 0.00 0.00 0.00 29 1014.3
20260504015515 59 283 0.0 3.0 0.00 0.00 0.00 29 1014.4
20260504015013 60 283 0.0 3.0 0.00 0.00 0.00 29 1014.4
20260504014532 61 286 0.0 3.0 0.00 0.00 0.00 28 1014.4
20260504014015 62 271 1.0 4.0 0.00 0.00 0.00 28 1014.4
20260504013516 62 262 1.0 5.0 0.00 0.00 0.00 28 1014.5
20260504013031 63 270 2.0 5.0 0.00 0.00 0.00 26 1014.4
20260504012514 63 276 1.0 5.0 0.00 0.00 0.00 25 1014.5
20260504012017 63 277 3.0 6.0 0.00 0.00 0.00 24 1014.4
20260504011531 64 264 2.0 6.0 0.00 0.00 0.00 25 1014.4
20260504011013 64 248 4.0 6.0 0.00 0.00 0.00 24 1014.5
20260504010515 64 278 2.0 6.0 0.00 0.00 0.00 25 1014.6
20260504010034 63 282 4.0 11.0 0.00 0.00 0.00 25 1014.5
20260504005514 64 242 4.0 11.0 0.00 0.00 0.00 25 1014.6
20260504005013 65 271 6.0 11.0 0.00 0.00 0.00 23 1014.6
20260504004542 65 238 6.0 12.0 0.00 0.00 0.00 24 1014.6